TimeCST,TemperatureF,Dew PointF,Humidity,Sea Level PressureIn,VisibilityMPH,Wind Direction,Wind SpeedMPH,Gust SpeedMPH,PrecipitationIn,Events,Conditions,WindDirDegrees,DateUTC
12:55 AM,21.6,15.3,77,30.32,10.0,NW,13.8,-,N/A,,Clear,320,2013-02-15 06:55:00
1:55 AM,19.4,12.9,76,30.34,10.0,NW,12.7,-,N/A,,Clear,310,2013-02-15 07:55:00
2:55 AM,16.9,10.6,76,30.36,10.0,NW,5.8,-,N/A,,Clear,310,2013-02-15 08:55:00
3:55 AM,15.6,11.1,82,30.36,10.0,WNW,5.8,-,N/A,,Clear,300,2013-02-15 09:55:00
4:55 AM,17.2,12.9,83,30.37,10.0,NW,9.2,-,N/A,,Clear,320,2013-02-15 10:55:00
5:55 AM,15.6,12.7,88,30.38,10.0,WNW,9.2,-,N/A,,Clear,300,2013-02-15 11:55:00
6:55 AM,14.9,11.1,85,30.39,10.0,WNW,9.2,-,N/A,,Clear,300,2013-02-15 12:55:00
7:55 AM,18.3,12.0,76,30.39,10.0,WNW,6.9,-,N/A,,Overcast,300,2013-02-15 13:55:00
8:55 AM,21.2,13.3,72,30.41,10.0,West,5.8,-,N/A,,Partly Cloudy,280,2013-02-15 14:55:00
9:55 AM,25.0,16.3,70,30.40,10.0,West,5.8,-,N/A,,Clear,280,2013-02-15 15:55:00
10:55 AM,28.8,16.9,61,30.39,10.0,NW,11.5,-,N/A,,Clear,320,2013-02-15 16:55:00
11:55 AM,31.5,13.6,48,30.39,10.0,NW,11.5,-,N/A,,Partly Cloudy,310,2013-02-15 17:55:00
12:55 PM,31.5,12.9,46,30.37,10.0,NW,10.4,-,N/A,,Partly Cloudy,320,2013-02-15 18:55:00
1:55 PM,32.0,11.1,42,30.35,10.0,Variable,6.9,-,N/A,,Mostly Cloudy,0,2013-02-15 19:55:00
2:29 PM,32.0,12.2,44,30.34,10.0,WNW,9.2,-,N/A,,Scattered Clouds,290,2013-02-15 20:29:00
2:55 PM,32.4,13.3,45,30.34,10.0,North,8.1,-,N/A,,Partly Cloudy,350,2013-02-15 20:55:00
3:55 PM,32.2,13.6,46,30.34,10.0,Variable,3.5,-,N/A,,Mostly Cloudy,0,2013-02-15 21:55:00
4:13 PM,32.0,14.0,48,30.33,10.0,NNE,5.8,-,N/A,,Scattered Clouds,20,2013-02-15 22:13:00
4:23 PM,32.0,15.8,51,30.33,10.0,North,4.6,-,N/A,,Scattered Clouds,350,2013-02-15 22:23:00
4:55 PM,30.7,15.6,54,30.33,10.0,NNE,5.8,-,0.00,,Scattered Clouds,30,2013-02-15 22:55:00
5:55 PM,29.5,20.5,69,30.34,10.0,NE,9.2,-,N/A,,Scattered Clouds,50,2013-02-15 23:55:00
6:27 PM,28.4,21.2,74,30.35,10.0,NE,8.1,-,N/A,,Scattered Clouds,50,2013-02-16 00:27:00
6:45 PM,26.6,24.8,93,30.36,10.0,NE,6.9,-,N/A,Snow,Light Snow,40,2013-02-16 00:45:00
6:55 PM,27.0,25.7,95,30.36,10.0,NNE,9.2,-,0.00,Snow,Light Snow,30,2013-02-16 00:55:00
7:03 PM,26.6,26.6,100,30.36,6.0,NNE,8.1,-,N/A,Snow,Light Snow,30,2013-02-16 01:03:00
7:12 PM,26.6,26.6,100,30.37,5.0,NNE,6.9,-,N/A,Snow,Light Snow,20,2013-02-16 01:12:00
7:21 PM,26.6,26.6,100,30.37,10.0,NNE,5.8,-,N/A,Snow,Light Snow,20,2013-02-16 01:21:00
7:24 PM,26.6,26.6,100,30.37,10.0,NNE,4.6,-,N/A,Snow,Light Snow,30,2013-02-16 01:24:00
7:27 PM,26.6,26.6,100,30.37,6.0,NNE,5.8,-,N/A,Snow,Light Snow,30,2013-02-16 01:27:00
7:31 PM,26.6,26.6,100,30.37,2.0,NE,8.1,-,N/A,Snow,Light Snow,40,2013-02-16 01:31:00
7:32 PM,26.6,26.6,100,30.37,1.8,NE,9.2,-,N/A,Snow,Light Snow,40,2013-02-16 01:32:00
7:43 PM,26.6,24.8,93,30.37,2.0,NNE,6.9,-,N/A,Snow,Light Snow,30,2013-02-16 01:43:00
7:45 PM,26.6,24.8,93,30.37,3.0,NNE,8.1,-,N/A,Snow,Light Snow,30,2013-02-16 01:45:00
7:49 PM,24.8,24.8,100,30.37,7.0,NNE,6.9,-,N/A,Snow,Light Snow,30,2013-02-16 01:49:00
7:51 PM,24.8,24.8,100,30.37,10.0,NNE,6.9,-,N/A,Snow,Light Snow,30,2013-02-16 01:51:00
7:53 PM,24.8,24.8,100,30.37,10.0,NNE,6.9,-,N/A,Snow,Light Snow,20,2013-02-16 01:53:00
7:55 PM,25.7,25.3,99,30.38,10.0,NNE,5.8,-,0.00,Snow,Light Snow,20,2013-02-16 01:55:00
7:58 PM,26.6,24.8,93,30.38,10.0,North,6.9,-,N/A,Snow,Light Snow,360,2013-02-16 01:58:00
8:29 PM,26.6,24.8,93,30.38,10.0,North,5.8,-,N/A,Snow,Light Snow,360,2013-02-16 02:29:00
8:45 PM,26.6,24.8,93,30.38,10.0,North,9.2,-,N/A,Snow,Light Snow,10,2013-02-16 02:45:00
8:55 PM,25.9,25.3,98,30.38,10.0,North,8.1,-,0.00,Snow,Light Snow,10,2013-02-16 02:55:00
9:11 PM,24.8,24.8,100,30.38,10.0,NNE,6.9,-,N/A,Snow,Light Snow,20,2013-02-16 03:11:00
9:22 PM,26.6,23.0,86,30.38,10.0,North,11.5,-,N/A,,Overcast,360,2013-02-16 03:22:00
9:23 PM,26.6,21.2,80,30.38,10.0,North,10.4,-,N/A,,Overcast,360,2013-02-16 03:23:00
9:55 PM,23.0,19.2,85,30.38,10.0,North,5.8,-,0.00,,Clear,360,2013-02-16 03:55:00
10:20 PM,17.6,17.6,100,30.39,10.0,NNW,3.5,-,N/A,,Mostly Cloudy,340,2013-02-16 04:20:00
10:55 PM,21.4,18.9,90,30.38,10.0,NW,4.6,-,N/A,,Overcast,310,2013-02-16 04:55:00
11:55 PM,24.6,18.9,79,30.37,10.0,North,8.1,-,N/A,,Overcast,10,2013-02-16 05:55:00
11:57 PM,24.8,19.4,80,30.44,10.0,North,10.4,-,N/A,,Overcast,10,2013-02-16 05:57:00